Regional Weather Roundup
Issued by NWS

Home | Current Version | Previous Version | Text Only | Print | Product List | Glossary On
Versions: 1 2 3 4 5 6 7 8 9 10 11 12 13 14 15 16 17 18 19 20 21 22 23 24 25 26 27
000
ASUS44 KLIX 262113
RWRLA
LOUISIANA WEATHER ROUNDUP
NATIONAL WEATHER SERVICE NEW ORLEANS LA
400 PM CDT FRI MAY 26 2017

NOTE: "FAIR" INDICATES FEW OR NO CLOUDS BELOW 12,000 FEET WITH NO
      SIGNIFICANT WEATHER AND/OR OBSTRUCTIONS TO VISIBILITY.
      SKY/WX - SKY CONDITION AND SIGNIFICANT WEATHER.
      TMP - AIR TEMPERATURE.    DP   - DEWPOINT TEMPERATURE.
      RH  - RELATIVE HUMIDITY.  PRES - PRESSURE.
      HX  - HEAT INDEX.         WCI  - WIND CHILL INDEX.

*  THESE STATIONS ARE NOT NWS OR FAA STATIONS AND ARE NOT UNDER
   NWS QUALITY CONTROL.

LAZ040-048-061>063-065-066-069-262200-
SOUTHEAST LOUISIANA

CITY           SKY/WX    TMP DP  RH WIND       PRES   REMARKS
N.O. INTL ARPT MOSUNNY   84  65  52 S14       29.99F
N.O. LAKEFRONT SUNNY     87  59  38 SE15      29.99F
N.O. DOWNTOWN*   N/A     88  60  38 S12G20      N/A
RESERVE*       FAIR      88  62  41 SE14      29.99S
SLIDELL        SUNNY     86  59  39 S15       30.00F
BATON ROUGE    MOSUNNY   85  66  53 S13       29.97F
BOOTHVILLE     SUNNY     80  70  71 S7        30.03F
BELLE CHASSE   MOSUNNY   84  64  50 S10G18    30.00F
BOGALUSA*      FAIR      87  58  37 SW8       30.00F
GALLIANO*      CLEAR     83  67  56 S9        30.01S
NEW ROADS*     MOCLDY    84  70  63 S10       29.97S
GONZALES*      FAIR      86  67  53 S7        29.97F
HAMMOND*       SUNNY     86  54  32 S10       29.99S
HOUMA*         MOSUNNY   84  72  65 SE14      29.99F
PORT FOURCHON* CLEAR     81  70  69 SE9       30.01S

$$

LAZ041-044-053-054-262200-
SOUTHWEST LOUISIANA

CITY           SKY/WX    TMP DP  RH WIND       PRES   REMARKS
LAKE CHARLES   CLOUDY    84  72  67 S8        29.94S
LAFAYETTE      PTSUNNY   83  71  67 S13       29.96F
PATTERSON      MOSUNNY   83  71  67 S9        29.99F
SALT POINT       N/A     82  72  71 VRB7      29.97F
NEW IBERIA     CLOUDY    83  70  64 S13       29.98F
CHENAULT AIRPK PTSUNNY   82  72  69 S16       29.94F

$$

LAZ027-028-262200-
CENTRAL LOUISIANA

CITY           SKY/WX    TMP DP  RH WIND       PRES   REMARKS
FORT POLK      PTSUNNY   84  73  67 S16       29.90F
ALEXANDRIA INT PTSUNNY   84  71  65 S10G18    29.90F
ALEXANDRIA     CLOUDY    86  73  65 S10       29.92F

$$

LAZ001-002-262200-
NORTHWEST LOUISIANA

CITY           SKY/WX    TMP DP  RH WIND       PRES   REMARKS
SHREVEPORT     PTSUNNY   86  73  65 S13       29.84F
BARKSDALE AFB  MOSUNNY   88  71  57 S17G24    29.84F
DTN SHREVEPORT PTSUNNY   87  72  60 S16G26    29.84F

$$

LAZ014-016-262200-
NORTHEAST LOUISIANA

CITY           SKY/WX    TMP DP  RH WIND       PRES   REMARKS
MONROE         MOSUNNY   86  69  56 SW16G26   29.89F
TALLULAH       MOSUNNY   84  68  58 S13G21    29.93F

$$





USA.gov is the U.S. government's official web portal to all federal, state and local government web resources and services.